Home   Weather   Nashville   Past weeks
Flag for USA

Past Weather in Nashville, Tennessee, USA — Yesterday and Last 2 Weeks

Now
47 °F

Overcast.


Feels Like: 43 °F
Forecast: 43 / 56 °F
Wind: 8 mph from Northwest

Location: Nashville International Airport

Current Time: Dec 16, 2018 at 4:45:56 am

Latest Report: Dec 16, 2018 at 3:53 am


Visibility: 9 mi

Pressure: 30.06 "Hg

Humidity: 90%

Dew Point: 44 °F

Location of NashvilleLocation

Past Weather in Nashville — Graph

°F

Nashville Temperature Yesterday

Maximum temperature yesterday: 56 °F (at 1:53 am)
Minimum temperature yesterday: 44 °F (at 10:53 pm)
Average temperature yesterday: 51 °F

High & Low Weather Summary for the Past Weeks

 TemperatureHumidityPressure
High70 °F (Dec 2, 12:53 pm)93% (Dec 1, 10:43 am)30.50 "Hg (Dec 1, 10:43 am)
Low20 °F (Dec 11, 5:53 am)23% (Dec 2, 2:53 pm)29.52 "Hg (Dec 1, 3:53 pm)
Average44 °F69%30.12 "Hg
* Reported Dec 1 3:53 am — Dec 16 3:36 am, Nashville. Weather by CustomWeather, © 2018

Note: Actual official high and low records may vary slightly from our data, if they occured in-between our weather recording intervals... More about our weather records

Advertising

Nashville Weather History for the Previous 24 Hours

Scroll right to see more
 ConditionsComfort  
Time TempWeatherWind HumidityBarometerVisibility
3:36 am
Sun, Dec 16
47 °FOvercast.12 mph90%30.06 "Hg8 mi
2:53 am47 °FFog.9 mph90%30.04 "Hg3 mi
1:53 am48 °FFog.8 mph86%30.03 "Hg5 mi
12:53 am48 °FLow clouds.5 mph86%30.01 "Hg9 mi
12:14 am47 °FLow clouds.6 mph86%30.02 "Hg10 mi
11:53 pm
Sat, Dec 15
47 °FOvercast.5 mph83%30.02 "Hg10 mi
11:23 pm46 °FOvercast.5 mph86%30.01 "Hg10 mi
10:53 pm44 °FMostly cloudy.6 mph89%30.01 "Hg10 mi
9:53 pm46 °FPassing clouds.5 mph79%30.01 "Hg10 mi
8:53 pm46 °FPassing clouds.3 mph77%30.00 "Hg10 mi
7:53 pm48 °FPassing clouds.5 mph71%29.99 "Hg10 mi
6:53 pm51 °FPassing clouds.No wind69%29.97 "Hg10 mi
5:53 pm50 °FPassing clouds.3 mph71%29.95 "Hg10 mi
4:53 pm51 °FPartly cloudy.No wind66%29.93 "Hg10 mi
3:53 pm53 °FPartly cloudy.No wind64%29.91 "Hg10 mi
2:53 pm53 °FPartly sunny.7 mph64%29.89 "Hg10 mi
1:53 pm53 °FPartly sunny.8 mph61%29.88 "Hg10 mi
12:53 pm52 °FMore clouds than sun.3 mph64%29.88 "Hg10 mi
11:53 am52 °FMostly cloudy.7 mph66%29.89 "Hg10 mi
10:53 am51 °FOvercast.7 mph71%29.90 "Hg10 mi
9:53 am51 °FBroken clouds.3 mph77%29.90 "Hg10 mi
8:53 am49 °FPartly sunny.5 mph80%29.89 "Hg10 mi
7:53 am48 °FBroken clouds.No wind83%29.87 "Hg10 mi
6:53 am48 °FBroken clouds.3 mph83%29.85 "Hg10 mi
5:53 am48 °FScattered clouds.5 mph83%29.83 "Hg10 mi
4:53 am52 °FPartly cloudy.10 mph83%29.81 "Hg10 mi
4:00 am54 °FMostly cloudy.3 mph93%29.81 "Hg10 mi
Weather by CustomWeather, © 2018

See weather overview